• In Deutschland
  • Länderverzeichnis
  • Für 7 Tage
  • Wassertemperatur
  • Satellitenkarten
  • Wetterkarte
  • Widgets
  • user-avatar
    Anmelden

    Stündliche Wetter Gaggenau

    Heute, 22 Oktober, Sonntag

    Zeit Temperatur Niederschläge Wind Luftdruck Luftfeuchtigkeit
    00:00 +11°C° 0,1 mm 4 m/S 748 mmHg 86%
    01:00 +11°C° 0 mm 4 m/S 748 mmHg 86%
    02:00 +10°C° 0 mm 4 m/S 748 mmHg 86%
    03:00 +10°C° 0 mm 4 m/S 748 mmHg 86%
    04:00 +10°C° 0 mm 4 m/S 748 mmHg 86%
    05:00 +8°C° 0 mm 4 m/S 748 mmHg 86%
    06:00 +8°C° 0 mm 5 m/S 748 mmHg 85%
    07:00 +8°C° 0 mm 4 m/S 747 mmHg 87%
    08:00 +10°C° 0 mm 4 m/S 747 mmHg 82%
    09:00 +9°C° 0 mm 5 m/S 747 mmHg 77%
    10:00 +10°C° 0 mm 6 m/S 747 mmHg 72%
    11:00 +10°C° 0,2 mm 6 m/S 747 mmHg 71%
    12:00 +10°C° 0,2 mm 6 m/S 747 mmHg 71%
    13:00 +10°C° 0 mm 6 m/S 747 mmHg 70%
    14:00 +10°C° 0,2 mm 5 m/S 747 mmHg 72%
    15:00 +10°C° 0,2 mm 5 m/S 747 mmHg 74%
    16:00 +9°C° 0,2 mm 5 m/S 747 mmHg 76%
    17:00 +9°C° 0,1 mm 5 m/S 748 mmHg 79%
    18:00 +8°C° 0,1 mm 4 m/S 748 mmHg 82%
    19:00 +8°C° 0,1 mm 4 m/S 749 mmHg 85%
    20:00 +7°C° 0 mm 4 m/S 749 mmHg 85%
    21:00 +7°C° 0 mm 4 m/S 749 mmHg 86%
    22:00 +8°C° 0 mm 3 m/S 749 mmHg 87%
    23:00 +8°C° 0 mm 3 m/S 749 mmHg 87%

    Morgen, 23 Oktober, Montag

    Zeit Temperatur Niederschläge Wind Luftdruck Luftfeuchtigkeit
    00:00 +7°C° 0 mm 3 m/S 749 mmHg 88%
    01:00 +7°C° 0 mm 3 m/S 749 mmHg 88%
    02:00 +7°C° 0,1 mm 3 m/S 749 mmHg 89%
    03:00 +7°C° 0,1 mm 3 m/S 749 mmHg 90%
    04:00 +7°C° 0,1 mm 3 m/S 749 mmHg 90%
    05:00 +8°C° 0 mm 3 m/S 750 mmHg 90%
    06:00 +8°C° 0 mm 3 m/S 750 mmHg 90%
    07:00 +8°C° 0 mm 3 m/S 750 mmHg 89%
    08:00 +8°C° 0 mm 4 m/S 750 mmHg 87%
    09:00 +8°C° 0 mm 4 m/S 751 mmHg 84%
    10:00 +10°C° 0 mm 4 m/S 751 mmHg 82%
    11:00 +10°C° 0,1 mm 4 m/S 751 mmHg 80%
    12:00 +11°C° 0,1 mm 4 m/S 751 mmHg 79%
    13:00 +11°C° 0,1 mm 4 m/S 751 mmHg 77%
    14:00 +11°C° 0,1 mm 4 m/S 751 mmHg 79%
    15:00 +11°C° 0,1 mm 4 m/S 751 mmHg 82%
    16:00 +10°C° 0,1 mm 3 m/S 751 mmHg 84%
    17:00 +10°C° 0,1 mm 3 m/S 752 mmHg 86%
    18:00 +10°C° 0,1 mm 3 m/S 752 mmHg 88%
    19:00 +10°C° 0,1 mm 3 m/S 752 mmHg 90%
    20:00 +10°C° 0,2 mm 3 m/S 752 mmHg 90%
    21:00 +10°C° 0,2 mm 3 m/S 753 mmHg 91%
    22:00 +10°C° 0,2 mm 3 m/S 753 mmHg 92%
    23:00 +10°C° 0,1 mm 3 m/S 753 mmHg 92%

    übermorgen, 24 Oktober, Dienstag

    Zeit Temperatur Niederschläge Wind Luftdruck Luftfeuchtigkeit
    00:00 +10°C° 0,1 mm 3 m/S 753 mmHg 92%
    01:00 +10°C° 0,1 mm 2 m/S 753 mmHg 92%
    02:00 +10°C° 0,2 mm 2 m/S 753 mmHg 92%
    03:00 +10°C° 0,2 mm 2 m/S 753 mmHg 92%
    04:00 +10°C° 0,2 mm 2 m/S 753 mmHg 92%
    05:00 +10°C° 0,1 mm 2 m/S 753 mmHg 92%
    06:00 +10°C° 0,1 mm 2 m/S 753 mmHg 92%
    07:00 +10°C° 0,1 mm 2 m/S 753 mmHg 92%
    08:00 +12°C° 0 mm 2 m/S 753 mmHg 90%
    09:00 +13°C° 0 mm 2 m/S 753 mmHg 88%
    10:00 +13°C° 0 mm 2 m/S 753 mmHg 86%
    11:00 +15°C° 0 mm 2 m/S 753 mmHg 83%
    12:00 +16°C° 0 mm 2 m/S 753 mmHg 80%
    13:00 +17°C° 0 mm 3 m/S 753 mmHg 77%
    14:00 +16°C° 0 mm 2 m/S 753 mmHg 79%
    15:00 +16°C° 0 mm 2 m/S 753 mmHg 82%
    16:00 +16°C° 0 mm 1 m/S 753 mmHg 84%
    17:00 +15°C° 0 mm 1 m/S 753 mmHg 86%
    18:00 +14°C° 0 mm 1 m/S 753 mmHg 89%
    19:00 +14°C° 0 mm 1 m/S 753 mmHg 91%
    20:00 +14°C° 0 mm 1 m/S 753 mmHg 91%
    21:00 +14°C° 0 mm 1 m/S 753 mmHg 91%
    22:00 +13°C° 0 mm 1 m/S 753 mmHg 92%
    23:00 +13°C° 0 mm 1 m/S 753 mmHg 92%

    25 Oktober, Mittwoch

    Zeit Temperatur Niederschläge Wind Luftdruck Luftfeuchtigkeit
    00:00 +13°C° 0 mm 1 m/S 753 mmHg 92%
    01:00 +12°C° 0 mm 1 m/S 753 mmHg 93%
    02:00 +12°C° 0 mm 1 m/S 753 mmHg 92%
    03:00 +12°C° 0 mm 1 m/S 752 mmHg 92%
    04:00 +12°C° 0 mm 1 m/S 752 mmHg 92%
    05:00 +12°C° 0 mm 1 m/S 752 mmHg 92%
    06:00 +12°C° 0 mm 1 m/S 753 mmHg 91%
    07:00 +12°C° 0 mm 1 m/S 753 mmHg 91%
    08:00 +13°C° 0 mm 1 m/S 753 mmHg 86%
    09:00 +15°C° 0 mm 1 m/S 753 mmHg 82%
    10:00 +16°C° 0 mm 1 m/S 753 mmHg 77%
    11:00 +19°C° 0 mm 1 m/S 753 mmHg 73%
    12:00 +19°C° 0 mm 2 m/S 753 mmHg 70%
    13:00 +20°C° 0 mm 2 m/S 753 mmHg 66%
    14:00 +20°C° 0 mm 2 m/S 753 mmHg 68%
    15:00 +21°C° 0 mm 1 m/S 752 mmHg 71%
    16:00 +21°C° 0 mm 1 m/S 752 mmHg 73%
    17:00 +19°C° 0 mm 1 m/S 752 mmHg 78%
    18:00 +18°C° 0 mm 1 m/S 752 mmHg 82%
    19:00 +16°C° 0 mm 1 m/S 753 mmHg 87%
    20:00 +15°C° 0 mm 1 m/S 753 mmHg 88%
    21:00 +15°C° 0 mm 1 m/S 753 mmHg 88%
    22:00 +14°C° 0 mm 1 m/S 753 mmHg 89%
    23:00 +14°C° 0 mm 1 m/S 753 mmHg 89%

    26 Oktober, Donnerstag

    Zeit Temperatur Niederschläge Wind Luftdruck Luftfeuchtigkeit
    00:00 +14°C° 0 mm 1 m/S 753 mmHg 89%
    01:00 +14°C° 0 mm 1 m/S 753 mmHg 89%
    02:00 +13°C° 0 mm 1 m/S 753 mmHg 89%
    03:00 +13°C° 0 mm 1 m/S 753 mmHg 89%
    04:00 +13°C° 0 mm 1 m/S 753 mmHg 88%
    05:00 +13°C° 0 mm 2 m/S 753 mmHg 88%
    06:00 +13°C° 0 mm 2 m/S 753 mmHg 88%
    07:00 +13°C° 0 mm 2 m/S 752 mmHg 87%
    08:00 +15°C° 0 mm 2 m/S 753 mmHg 81%
    09:00 +16°C° 0 mm 2 m/S 753 mmHg 74%
    10:00 +18°C° 0 mm 2 m/S 753 mmHg 67%
    11:00 +19°C° 0 mm 3 m/S 752 mmHg 63%
    12:00 +21°C° 0 mm 3 m/S 752 mmHg 59%
    13:00 +22°C° 0 mm 3 m/S 752 mmHg 55%
    14:00 +21°C° 0 mm 3 m/S 752 mmHg 59%
    15:00 +21°C° 0 mm 2 m/S 751 mmHg 62%
    16:00 +20°C° 0 mm 2 m/S 751 mmHg 65%
    17:00 +19°C° 0 mm 2 m/S 751 mmHg 71%
    18:00 +17°C° 0 mm 2 m/S 751 mmHg 76%
    19:00 +16°C° 0 mm 2 m/S 751 mmHg 82%
    20:00 +16°C° 0 mm 2 m/S 751 mmHg 83%
    21:00 +15°C° 0 mm 2 m/S 751 mmHg 84%
    22:00 +15°C° 0 mm 2 m/S 751 mmHg 86%
    23:00 +15°C° 0 mm 2 m/S 751 mmHg 87%

    27 Oktober, Freitag

    Zeit Temperatur Niederschläge Wind Luftdruck Luftfeuchtigkeit
    00:00 +14°C° 0 mm 3 m/S 751 mmHg 87%
    01:00 +14°C° 0 mm 3 m/S 750 mmHg 88%
    02:00 +14°C° 0 mm 3 m/S 750 mmHg 88%
    03:00 +14°C° 0 mm 4 m/S 750 mmHg 87%
    04:00 +14°C° 0 mm 4 m/S 750 mmHg 87%
    05:00 +14°C° 0 mm 4 m/S 749 mmHg 86%
    06:00 +13°C° 0 mm 4 m/S 749 mmHg 85%
    07:00 +13°C° 0 mm 5 m/S 749 mmHg 83%
    08:00 +14°C° 0,2 mm 5 m/S 749 mmHg 83%
    09:00 +14°C° 0,2 mm 5 m/S 750 mmHg 82%
    10:00 +14°C° 0,2 mm 5 m/S 750 mmHg 81%
    11:00 +14°C° 0,7 mm 5 m/S 750 mmHg 82%
    12:00 +13°C° 0,7 mm 4 m/S 750 mmHg 84%
    13:00 +13°C° 0,7 mm 4 m/S 750 mmHg 86%
    14:00 +13°C° 0,2 mm 4 m/S 750 mmHg 82%
    15:00 +13°C° 0,2 mm 4 m/S 751 mmHg 79%
    16:00 +13°C° 0,2 mm 3 m/S 751 mmHg 76%
    17:00 +12°C° 0 mm 3 m/S 751 mmHg 78%
    18:00 +12°C° 0 mm 2 m/S 752 mmHg 81%
    19:00 +9°C° 0 mm 2 m/S 752 mmHg 84%
    20:00 +9°C° 0 mm 2 m/S 753 mmHg 86%
    21:00 +8°C° 0 mm 2 m/S 753 mmHg 87%
    22:00 +8°C° 0 mm 2 m/S 753 mmHg 88%
    23:00 +8°C° 0 mm 2 m/S 753 mmHg 87%
    Mehr zeigen